Regional Weather Roundup
Issued by NWS

Home | Current Version | Previous Version | Text Only | Print | Product List | Glossary Off
Versions: 1 2 3 4 5 6 7 8 9 10 11 12 13 14 15 16 17 18 19 20 21 22 23 24 25 26 27 28 29 30 31 32 33 34 35 36 37 38 39 40 41 42 43 44 45 46 47 48 49 50

000
ASUS43 KMKX 301603
RWRWI

WISCONSIN REGIONAL WEATHER ROUNDUP
NATIONAL WEATHER SERVICE MILWAUKEE/SULLIVAN WI
1100 AM CDT SAT MAY 30 2015

NOTE: "FAIR" INDICATES FEW OR NO CLOUDS BELOW 12,000 FEET WITH NO
SIGNIFICANT WEATHER AND/OR OBSTRUCTIONS TO VISIBILITY.

WIZ001-002-006>008-014>016-023>028-301700-
NORTHWEST WISCONSIN

CITY           SKY/WX    TMP DP  RH WIND       PRES   REMARKS
SUPERIOR ARPT  MOSUNNY   51  36  57 NE7       30.29R
ASHLAND        CLOUDY    49  39  68 NE15      30.29R
HAYWARD        CLOUDY    50  39  66 NE18      30.25R
SIREN          CLOUDY    51  39  63 N9        30.24S
CUMBERLAND     CLOUDY    50  41  71 N13G21    30.22R
RICE LAKE      CLOUDY    51  42  72 N13       30.23R
CHETEK         CLOUDY    52  44  75 N12       30.21R
LADYSMITH      CLOUDY    51  45  78 N10G21    30.21R
EAU CLAIRE     NOT AVBL
MENOMONIE      CLOUDY    53  45  73 N14       30.20R
NEW RICHMOND   PTSUNNY   52  42  69 N9G21     30.22S
OSCEOLA        CLOUDY    52  42  70 N9        30.25S
$$

WIZ003>005-009-010-017-018-301700-
NORTH CENTRAL WISCONSIN

CITY           SKY/WX    TMP DP  RH WIND       PRES   REMARKS
MANITOWISH WTR CLOUDY    46  44  91 N12G17    30.20R
ARBOR VITAE    CLOUDY    48  45  87 NE9       30.20R FOG
WOODRUFF       CLOUDY    48  45  87 NE9       30.20R FOG
RHINELANDER    CLOUDY    51  44  77 VRB7G18   30.18R
EAGLE RIVER    CLOUDY    49  41  76 NE12G21   30.18R
LAND O LAKES   CLOUDY    46  43  91 N12       30.21R FOG
PHILLIPS       CLOUDY    50  44  79 NE17G23   30.18R
TOMAHAWK       CLOUDY    50  46  87 N6        30.18R FOG
MEDFORD        CLOUDY    52  47  83 N12       30.16R
MERRILL        CLOUDY    54  48  81 NE10      30.16R
$$

WIZ029-030-035-036-043>047-301700-
CENTRAL WISCONSIN

CITY           SKY/WX    TMP DP  RH WIND       PRES   REMARKS
WAUSAU         CLOUDY    55  46  71 NE13      30.14R
MOSINEE        CLOUDY    54  48  82 NE15      30.16R
MARSHFIELD     CLOUDY    56  48  74 NE13      30.15R
STEVENS POINT  CLOUDY    52  50  93 NE9       30.14R
WAUPACA        CLOUDY    55  48  79 NE9G18    30.14R
WAUTOMA        LGT RAIN  52  52 100 NE8       30.13R FOG
WISC RAPIDS    LGT RAIN  55  51  86 NE7       30.15R
CAMP DOUGLAS   LGT RAIN  54  54 100 NE7       30.11R
$$

WIZ011>013-019>022-031-037>040-048>050-301700-
NORTHEAST WISCONSIN

CITY           SKY/WX    TMP DP  RH WIND       PRES   REMARKS
ANTIGO         CLOUDY    51  45  79 NE10G17   30.16R
SHAWANO        CLOUDY    55  47  76 NE12      30.15R
OCONTO         CLOUDY    51  47  88 NE8       30.14R
STURGEON BAY   CLOUDY    48  41  76 N18G24    30.16R
GREEN BAY      LGT RAIN  52  49  89 N14       30.15R
MANITOWOC      NOT AVBL
APPLETON       LGT RAIN  50  48  93 NE15G21   30.14R FOG
CLINTONVILLE   LGT RAIN  52  48  87 E10       30.15R
OSHKOSH        LGT RAIN  51  48  89 NE15G26   30.11R FOG
$$

WIZ032>034-041-042-053>061-301700-
SOUTHWEST WISCONSIN

CITY           SKY/WX    TMP DP  RH WIND       PRES   REMARKS
LA CROSSE      CLOUDY    57  50  77 N13       30.14R
SPARTA         CLOUDY    55  53  92 N7        30.13R
VIROQUA        CLOUDY    54  54 100 NE16      30.11R
BOSCOBEL       CLOUDY    59  54  83 NE16G22   30.08R
PRAIRIE DU CHI CLOUDY    59  55  88 N7        30.06R FOG
PLATTEVILLE    CLOUDY    59  56  91 N24       30.02R
$$

WIZ056-057-062-063-064-067-068-301700-
SOUTH CENTRAL WISCONSIN

CITY           SKY/WX    TMP DP  RH WIND       PRES   REMARKS
REEDSBURG      RAIN      53  51  96 N10G16    30.09R
BARABOO/DELLS  DRIZZLE   52  50  93 NE14G20   30.09R
LONE ROCK      LGT RAIN  56  52  86 NE12      30.08R FOG
MINERAL POINT  CLOUDY    57  54  88 NE17G23   30.04R
MADISON        LGT RAIN  55  52  89 NE17G26   30.07R
MIDDLETON      CLOUDY    57  54  91 NE22G28   30.07R
WATERTOWN      CLOUDY   N/A N/A N/A NE10G21   30.07R
MONROE         CLOUDY    55  54  94 N15G24    30.01R
JANESVILLE     LGT RAIN  57  55  94 NE21      30.02R
$$

WIZ051-052-058>065-066-070>072-301700-
SOUTHEAST WISCONSIN

CITY           SKY/WX    TMP DP  RH WIND       PRES   REMARKS
MILWAUKEE      DRIZZLE   49  46  90 N22G29    30.07R FOG
WAUKESHA       RAIN      48  48 100 NE10G28   30.08R
MILWAUKEE/TIMM CLOUDY    50  46  87 NE20G30   30.09R FOG
RACINE         CLOUDY    48  45  89 N18G31    30.07R
BURLINGTON     DRIZZLE   50  49  97 NE15G23   30.05R
KENOSHA        CLOUDY    50  48  93 N15G23    30.06R FOG
FOND DU LAC    RAIN      51  49  92 NE18G24   30.12R FOG
SHEBOYGAN      LGT RAIN  49  46  90 N20G26    30.11R FOG
WEST BEND      RAIN      48  45  87 NE14G21   30.09R
JUNEAU         DRIZZLE   52  50  94 N13       30.09R
$$

LSZ147-162-301700-
LAKE SUPERIOR

STATION/POSITION TIME  TEMP    WIND        PRES    WAVE
                       AIR SEA DIR/SP/G            HT/PER
                 (UTC) (F)     (DEG/KT/KT) (MB)    (FT/S)
W MID LAKE BUOY  1450   39 37   20/ 12/ 14   N/A     2/ 4
DEVILS ISLAND    1500   41      30/  7/  8   N/A
PORT WING        1540   45      30/ 11/ 13   N/A
SAXON HARBOR     1500   45      40/  9/ 12   N/A
$$

LMZ867-665-643>646-301700-
LAKE MICHIGAN

STATION/POSITION TIME  TEMP    WIND        PRES    WAVE
                       AIR SEA DIR/SP/G            HT/PER
                 (UTC) (F)     (DEG/KT/KT) (MB)    (FT/S)
CHAMBERS ISLAND  1500   51     350/ 15/ 18   N/A
N MID LAKE BUOY  1450   40 37  330/  6/  6   N/A     2/ 4
NORTHPORT PIER   1500   49     350/ 18/ 22   N/A
SISTER BAY       1518   51     360/ 17/ 21   N/A
ALGOMA LAKESHORE 1408           40/  9/ 15   N/A
KEWAUNEE LAKESHO 1500   47      20/ 11/ 14   N/A
SHEBOYGAN LAKESH 1500   45     360/ 22/ 25   N/A
PORT WASHINGTON  1540   49      20/ 12/ 25   N/A
ATWATER BUOY     1500   49      20/ 23/ 31   N/A
MILWAUKEE LAKESH 1500   48      20/ 22/ 28   N/A
S MID LAKE BUOY  1450   41 38  350/  8/ 10   N/A     0
KENOSHA   LAKESH 1500   48      10/ 22/ 27   N/A
$$

TC  - TEMPERATURE IN CELSIUS
VSB - VISIBILITY IN STATUTE MILES
WCI - WIND CHILL INDEX
HX  - HEAT INDEX




USA.gov is the U.S. government's official web portal to all federal, state and local government web resources and services.